When you browse on this site, cookies collect data to enhance your experience and personalize the content and advertising you see.
Visit our Privacy Policy to learn more. By continuing to use the site, you agree to this use of cookies and data.
  • în România
  • Lista ţărilor
  • Pe 7 zile
  • Temperatura apei
  • Hartă satelitară
  • Meteo pe hartă
  • Widget-uri
  • user-avatar
    Intrare

    Meteo pe oră la Austin

    Astăzi, 25 Aprilie, Joi

    Timp Temperatura Precipitaţii Vânt Presiune Umiditate
    00:00 +15°C° 0 mm 2 m/s 741 mmHg 88%
    01:00 +15°C° 0 mm 2 m/s 741 mmHg 87%
    02:00 +15°C° 0 mm 2 m/s 740 mmHg 85%
    03:00 +15°C° 0 mm 2 m/s 740 mmHg 83%
    04:00 +15°C° 0 mm 2 m/s 740 mmHg 81%
    05:00 +14°C° 0 mm 2 m/s 741 mmHg 79%
    06:00 +17°C° 0 mm 3 m/s 741 mmHg 74%
    07:00 +19°C° 0 mm 3 m/s 741 mmHg 70%
    08:00 +21°C° 0 mm 3 m/s 742 mmHg 65%
    09:00 +25°C° 0 mm 3 m/s 742 mmHg 57%
    10:00 +27°C° 0 mm 3 m/s 742 mmHg 49%
    11:00 +29°C° 0 mm 3 m/s 742 mmHg 40%
    12:00 +30°C° 0 mm 3 m/s 742 mmHg 38%
    13:00 +32°C° 0 mm 4 m/s 742 mmHg 36%
    14:00 +33°C° 0 mm 4 m/s 741 mmHg 34%
    15:00 +32°C° 0 mm 4 m/s 742 mmHg 38%
    16:00 +30°C° 0 mm 3 m/s 742 mmHg 42%
    17:00 +29°C° 0 mm 3 m/s 742 mmHg 46%
    18:00 +27°C° 0 mm 2 m/s 742 mmHg 48%
    19:00 +25°C° 0 mm 2 m/s 743 mmHg 51%
    20:00 +23°C° 0 mm 1 m/s 743 mmHg 53%
    21:00 +23°C° 0 mm 2 m/s 744 mmHg 54%
    22:00 +23°C° 0 mm 2 m/s 744 mmHg 55%
    23:00 +21°C° 0 mm 3 m/s 745 mmHg 55%

    Mâine, 26 Aprilie, Vineri

    Timp Temperatura Precipitaţii Vânt Presiune Umiditate
    00:00 +21°C° 0 mm 4 m/s 745 mmHg 60%
    01:00 +20°C° 0 mm 5 m/s 745 mmHg 66%
    02:00 +19°C° 0 mm 5 m/s 745 mmHg 71%
    03:00 +17°C° 0 mm 5 m/s 746 mmHg 69%
    04:00 +17°C° 0 mm 5 m/s 746 mmHg 66%
    05:00 +16°C° 0 mm 5 m/s 747 mmHg 64%
    06:00 +17°C° 0 mm 5 m/s 747 mmHg 61%
    07:00 +19°C° 0 mm 6 m/s 748 mmHg 58%
    08:00 +20°C° 0 mm 6 m/s 748 mmHg 55%
    09:00 +21°C° 0 mm 5 m/s 748 mmHg 52%
    10:00 +23°C° 0 mm 5 m/s 748 mmHg 48%
    11:00 +25°C° 0 mm 5 m/s 748 mmHg 44%
    12:00 +26°C° 0 mm 4 m/s 747 mmHg 42%
    13:00 +27°C° 0 mm 4 m/s 747 mmHg 40%
    14:00 +27°C° 0 mm 3 m/s 746 mmHg 37%
    15:00 +26°C° 0 mm 3 m/s 746 mmHg 42%
    16:00 +26°C° 0 mm 3 m/s 745 mmHg 46%
    17:00 +25°C° 0 mm 2 m/s 745 mmHg 51%
    18:00 +23°C° 0 mm 2 m/s 745 mmHg 56%
    19:00 +21°C° 0 mm 2 m/s 745 mmHg 62%
    20:00 +20°C° 0 mm 1 m/s 745 mmHg 68%
    21:00 +18°C° 0 mm 2 m/s 745 mmHg 72%
    22:00 +18°C° 0 mm 2 m/s 745 mmHg 76%
    23:00 +17°C° 0 mm 2 m/s 745 mmHg 79%

    Poimâine, 27 Aprilie, Sâmbătă

    Timp Temperatura Precipitaţii Vânt Presiune Umiditate
    00:00 +17°C° 0 mm 2 m/s 744 mmHg 81%
    01:00 +17°C° 0 mm 2 m/s 743 mmHg 83%
    02:00 +17°C° 0 mm 2 m/s 743 mmHg 85%
    03:00 +17°C° 0 mm 3 m/s 743 mmHg 87%
    04:00 +17°C° 0 mm 3 m/s 743 mmHg 88%
    05:00 +17°C° 0 mm 4 m/s 742 mmHg 90%
    06:00 +19°C° 0 mm 4 m/s 743 mmHg 81%
    07:00 +22°C° 0 mm 5 m/s 743 mmHg 72%
    08:00 +24°C° 0 mm 6 m/s 743 mmHg 63%
    09:00 +27°C° 0 mm 6 m/s 743 mmHg 58%
    10:00 +28°C° 0 mm 6 m/s 743 mmHg 53%
    11:00 +30°C° 0 mm 6 m/s 742 mmHg 49%
    12:00 +30°C° 0 mm 6 m/s 742 mmHg 48%
    13:00 +32°C° 0 mm 6 m/s 741 mmHg 48%
    14:00 +32°C° 0 mm 6 m/s 740 mmHg 48%
    15:00 +32°C° 0 mm 6 m/s 740 mmHg 52%
    16:00 +30°C° 0 mm 5 m/s 740 mmHg 56%
    17:00 +29°C° 0 mm 5 m/s 739 mmHg 60%
    18:00 +27°C° 0 mm 5 m/s 740 mmHg 64%
    19:00 +25°C° 0 mm 5 m/s 740 mmHg 69%
    20:00 +23°C° 0 mm 5 m/s 740 mmHg 73%
    21:00 +22°C° 0 mm 5 m/s 741 mmHg 76%
    22:00 +21°C° 0 mm 5 m/s 741 mmHg 80%
    23:00 +20°C° 0 mm 5 m/s 741 mmHg 84%

    28 Aprilie, Duminică

    Timp Temperatura Precipitaţii Vânt Presiune Umiditate
    00:00 +19°C° 0 mm 4 m/s 741 mmHg 87%
    01:00 +19°C° 0 mm 4 m/s 741 mmHg 90%
    02:00 +19°C° 0 mm 4 m/s 741 mmHg 93%
    03:00 +18°C° 0 mm 3 m/s 741 mmHg 94%
    04:00 +18°C° 0 mm 3 m/s 742 mmHg 95%
    05:00 +18°C° 0 mm 3 m/s 742 mmHg 96%
    06:00 +19°C° 0 mm 3 m/s 742 mmHg 91%
    07:00 +21°C° 0 mm 4 m/s 743 mmHg 87%
    08:00 +22°C° 0 mm 4 m/s 743 mmHg 83%
    09:00 +25°C° 0 mm 5 m/s 743 mmHg 74%
    10:00 +27°C° 0 mm 5 m/s 743 mmHg 66%
    11:00 +29°C° 0 mm 5 m/s 743 mmHg 58%
    12:00 +30°C° 0 mm 6 m/s 743 mmHg 56%
    13:00 +30°C° 0 mm 6 m/s 742 mmHg 55%
    14:00 +32°C° 0 mm 6 m/s 742 mmHg 53%
    15:00 +30°C° 0 mm 6 m/s 742 mmHg 57%
    16:00 +29°C° 0 mm 6 m/s 742 mmHg 60%
    17:00 +28°C° 0 mm 6 m/s 742 mmHg 64%
    18:00 +26°C° 0 mm 6 m/s 742 mmHg 70%
    19:00 +23°C° 0 mm 5 m/s 742 mmHg 76%
    20:00 +22°C° 0 mm 5 m/s 743 mmHg 82%
    21:00 +21°C° 0 mm 5 m/s 743 mmHg 86%
    22:00 +21°C° 0 mm 6 m/s 743 mmHg 90%
    23:00 +20°C° 0 mm 6 m/s 743 mmHg 94%

    29 Aprilie, Luni

    Timp Temperatura Precipitaţii Vânt Presiune Umiditate
    00:00 +21°C° 0.1 mm 6 m/s 742 mmHg 91%
    01:00 +21°C° 0.1 mm 6 m/s 742 mmHg 89%
    02:00 +21°C° 0.1 mm 7 m/s 742 mmHg 87%
    03:00 +21°C° 0 mm 6 m/s 742 mmHg 87%
    04:00 +21°C° 0 mm 6 m/s 742 mmHg 86%
    05:00 +21°C° 0 mm 6 m/s 742 mmHg 86%
    06:00 +22°C° 0 mm 6 m/s 743 mmHg 84%
    07:00 +22°C° 0 mm 6 m/s 743 mmHg 82%
    08:00 +23°C° 0 mm 6 m/s 743 mmHg 80%
    09:00 +24°C° 0 mm 6 m/s 743 mmHg 76%
    10:00 +26°C° 0 mm 6 m/s 743 mmHg 72%
    11:00 +28°C° 0 mm 6 m/s 743 mmHg 68%
    12:00 +29°C° 0 mm 7 m/s 743 mmHg 65%
    13:00 +30°C° 0 mm 7 m/s 742 mmHg 61%
    14:00 +32°C° 0 mm 7 m/s 742 mmHg 58%
    15:00 +32°C° 0 mm 7 m/s 742 mmHg 62%
    16:00 +30°C° 0 mm 7 m/s 742 mmHg 66%
    17:00 +29°C° 0 mm 7 m/s 741 mmHg 70%
    18:00 +27°C° 0 mm 6 m/s 742 mmHg 75%
    19:00 +26°C° 0 mm 6 m/s 742 mmHg 81%
    20:00 +23°C° 0 mm 6 m/s 743 mmHg 86%
    21:00 +23°C° 0.1 mm 6 m/s 743 mmHg 87%
    22:00 +23°C° 0.1 mm 6 m/s 743 mmHg 88%
    23:00 +23°C° 0.1 mm 7 m/s 743 mmHg 89%

    30 Aprilie, Marţi

    Timp Temperatura Precipitaţii Vânt Presiune Umiditate
    00:00 +23°C° 0.1 mm 7 m/s 742 mmHg 89%
    01:00 +23°C° 0.1 mm 7 m/s 742 mmHg 89%
    02:00 +23°C° 0.1 mm 7 m/s 742 mmHg 89%
    03:00 +23°C° 0.1 mm 6 m/s 742 mmHg 90%
    04:00 +23°C° 0.1 mm 6 m/s 742 mmHg 90%
    05:00 +23°C° 0.1 mm 6 m/s 742 mmHg 90%
    06:00 +23°C° 0.1 mm 7 m/s 742 mmHg 89%
    07:00 +23°C° 0.1 mm 7 m/s 743 mmHg 88%
    08:00 +23°C° 0.1 mm 7 m/s 743 mmHg 87%
    09:00 +24°C° 0.1 mm 7 m/s 743 mmHg 84%
    10:00 +26°C° 0.1 mm 7 m/s 743 mmHg 81%
    11:00 +27°C° 0.1 mm 6 m/s 743 mmHg 78%
    12:00 +27°C° 0.1 mm 6 m/s 743 mmHg 74%
    13:00 +28°C° 0.1 mm 6 m/s 742 mmHg 71%
    14:00 +29°C° 0.1 mm 6 m/s 742 mmHg 68%
    15:00 +28°C° 0.1 mm 6 m/s 742 mmHg 71%
    16:00 +28°C° 0.1 mm 5 m/s 742 mmHg 73%
    17:00 +28°C° 0.1 mm 5 m/s 742 mmHg 76%
    18:00 +27°C° 0.6 mm 5 m/s 742 mmHg 81%
    19:00 +26°C° 0.6 mm 5 m/s 742 mmHg 86%
    20:00 +24°C° 0.6 mm 6 m/s 743 mmHg 91%
    21:00 +24°C° 0.2 mm 6 m/s 742 mmHg 91%
    22:00 +24°C° 0.2 mm 6 m/s 742 mmHg 91%
    23:00 +24°C° 0.2 mm 6 m/s 742 mmHg 92%
    Arată mai mult